Pembrey Sands, United Kingdom

2:01 PM BST on April 26, 2017 (GMT +0100)
Pembrey Sands

Weather History for EGOP - November, 2012

Change the Weather History Date:

Tuesday, November 27, 2012

  Actual Average Record
Temperature  
Mean Temperature 45 °F -  
Max Temperature 48 °F - - ()
Min Temperature 42 °F - - ()
Degree Days  
Heating Degree Days 20    
Moisture  
Dew Point 38 °F    
Average Humidity 75    
Maximum Humidity 87    
Minimum Humidity 61    
Precipitation  
Precipitation 0.00 in - - ()
Sea Level Pressure  
Sea Level Pressure 29.82 in    
Wind  
Wind Speed 20 mph ()    
Max Wind Speed 31 mph    
Max Gust Speed 45 mph    
Visibility 6.2 miles    
Events      
T = Trace of Precipitation, MM = Missing Value Source: Averaged Metar Reports

Daily Weather History Graph

Daily Weather History Graph

Search for Another Location

Airport or City:

Trip Planner

Search our weather history database for the weather conditions in past years. The results will help you decide how hot, cold, wet, or windy it might be!

Date:

Astronomy

Nov. 27, 2012 Rise Set
Actual Time 7:56 AM GMT 4:13 PM GMT
Civil Twilight 7:17 AM GMT 4:52 PM GMT
Nautical Twilight 6:35 AM GMT 5:34 PM GMT
Astronomical Twilight 5:55 AM GMT 6:14 PM GMT
Moon 3:38 PM GMT (11/27) 6:44 AM GMT (11/27)
Length of Visible Light 9h 34m
Length of Day
8h 17m
Waxing Gibbous, 99% of the Moon is Illuminated
Nov 27
Waxing Gibbous
Nov 28
Full
Dec 6
Last Quarter
Dec 13
New
Dec 20
First Quarter

Hourly Weather History & Observations

Time (GMT) Temp. Windchill Dew Point Humidity Pressure Visibility Wind Dir Wind Speed Gust Speed Precip Events Conditions
12:50 AM 46.4 °F 37.9 °F 39.2 °F 76% 29.65 in 6.2 mi North 25.3 mph 44.9 mph N/A   Mostly Cloudy
1:50 AM 44.6 °F 36.1 °F 39.2 °F 81% 29.65 in 6.2 mi North 21.9 mph 35.7 mph N/A   Mostly Cloudy
2:50 AM 45 °F - 39 °F 74% 29.67 in 28 mi North 24.2 mph - -   Scattered Clouds
2:50 AM 44.6 °F 35.7 °F 39.2 °F 81% 29.65 in 6.2 mi North 24.2 mph 38.0 mph N/A   Mostly Cloudy
3:50 AM 44.6 °F 35.5 °F 39.2 °F 81% 29.65 in 6.2 mi North 25.3 mph 40.3 mph N/A   Mostly Cloudy
4:50 AM 44.6 °F 34.9 °F 37.4 °F 76% 29.65 in 6.2 mi North 28.8 mph 42.6 mph N/A   Mostly Cloudy
5:50 AM 44 °F - 38 °F 74% 29.68 in 22 mi North 26.5 mph - -   Scattered Clouds
5:50 AM 42.8 °F 32.9 °F 39.2 °F 87% 29.65 in 6.2 mi North 26.5 mph 39.1 mph N/A   Mostly Cloudy
6:50 AM 44.6 °F 35.9 °F 39.2 °F 81% 29.68 in 6.2 mi North 23.0 mph 36.8 mph N/A   Mostly Cloudy
8:50 AM 45 °F - 38 °F 68% 29.72 in 40 mi North 31.1 mph - -   Scattered Clouds
8:50 AM 44.6 °F 34.6 °F 37.4 °F 76% 29.71 in 6.2 mi North 31.1 mph - N/A   Mostly Cloudy
9:50 AM 44.6 °F 35.9 °F 39.2 °F 81% 29.74 in 6.2 mi NNE 23.0 mph - N/A   Mostly Cloudy
10:50 AM 46.4 °F 37.9 °F 39.2 °F 76% 29.80 in 6.2 mi NNE 25.3 mph - N/A   Scattered Clouds
11:50 AM 49 °F - 40 °F 61% 29.82 in 34 mi NNE 23.0 mph - -   Mostly Cloudy
11:50 AM 48.2 °F - 39.2 °F 71% 29.80 in 6.2 mi NNE 23.0 mph - N/A   Mostly Cloudy
12:50 PM 48.2 °F - 39.2 °F 71% 29.83 in 6.2 mi NNE 23.0 mph - N/A   Mostly Cloudy
2:50 PM 47 °F - 39 °F 65% 29.86 in 31 mi North 25.3 mph - -   Mostly Cloudy
2:50 PM 48.2 °F - 39.2 °F 71% 29.86 in 6.2 mi North 25.3 mph 36.8 mph N/A   Mostly Cloudy
3:50 PM 46.4 °F 38.1 °F 39.2 °F 76% 29.86 in 6.2 mi NNE 24.2 mph - N/A   Partly Cloudy
5:50 PM 44 °F - 38 °F 71% 29.94 in 31 mi North 18.4 mph - -  
5:50 PM 44.6 °F 36.9 °F 37.4 °F 76% 29.92 in 6.2 mi North 18.4 mph - N/A   Unknown
6:50 PM 44.6 °F 36.6 °F 37.4 °F 76% 29.95 in 6.2 mi North 19.6 mph - N/A   Partly Cloudy
7:50 PM 42.8 °F 36.2 °F 37.4 °F 81% 29.98 in 6.2 mi North 12.7 mph - N/A   Partly Cloudy
8:50 PM 44 °F - 37 °F 69% 29.99 in 34 mi North 13.8 mph - -   Mostly Cloudy
8:50 PM 44.6 °F 38.1 °F 37.4 °F 76% 29.98 in 6.2 mi North 13.8 mph - N/A   Mostly Cloudy
9:50 PM 42.8 °F 38.6 °F 37.4 °F 81% 29.98 in 6.2 mi North 6.9 mph - N/A   Mostly Cloudy
10:50 PM 44.6 °F 38.4 °F 37.4 °F 76% 30.01 in 6.2 mi North 12.7 mph - N/A   Mostly Cloudy
11:50 PM 44 °F - 37 °F 67% 30.02 in 22 mi NE 6.9 mph - -   Overcast
11:50 PM 44.6 °F 40.7 °F 37.4 °F 76% 30.01 in 6.2 mi NE 6.9 mph - N/A   Overcast